AirNav   Everest Fuels
 
 526 users online  

C43 Hiram Cure Airport
Sunfield, Michigan, USA

GOING TO SUNFIELD?


FAA INFORMATION EFFECTIVE 31 DECEMBER 2020

Location

FAA Identifier: C43
Lat/Long: 42-46-12.1150N 084-57-53.8470W
42-46.201917N 084-57.897450W
42.7700319,-84.9649575
(estimated)
Elevation: 853 ft. / 260 m (estimated)
Variation: 05W (1990)
From city: 2 miles NE of SUNFIELD, MI
Time zone: UTC -5 (UTC -4 during Daylight Saving Time)
Zip code: 48890

Airport Operations

Airport use: Open to the public
Activation date: 07/1992
Control tower: no
ARTCC: CLEVELAND CENTER
FSS: LANSING FLIGHT SERVICE STATION
NOTAMs facility: LAN (NOTAM-D service available)
Attendance: IREG
Wind indicator: yes
Segmented circle: no

Airport Communications

CTAF: 122.9
WX AWOS-3 at Y70 (11 nm NW): 118.9 (616-523-1852)
WX AWOS-3 at FPK (14 nm SE): 118.075 (517-543-2288)
WX ASOS at LAN (17 nm E): 119.75 (517-908-8494)

Nearby radio navigation aids

VOR radial/distance  VOR name  Freq  Var
VIOr096/23.5VICTORY VOR/DME115.9504W

Airport Services

Parking: tiedowns

Runway Information

Runway 9/27

Dimensions: 2314 x 100 ft. / 705 x 30 m
Surface: turf, in good condition
Runway edge markings: 3 FT YELLOW CONES.
Operational restrictions: SOFT WHEN WET.
RUNWAY 9  RUNWAY 27
Traffic pattern: leftleft

Airport Ownership and Management from official FAA records

Ownership: Privately-owned
Owner: KERRY HAYNOR
5630 E EATON HWY
SUNFIELD, MI 48890-9730
Phone 517-256-6395
Manager: KERRY HAYNOR
5630 E EATON HWY
SUNFIELD, MI 48890-9730
Phone 517-256-6395
RESIDES ON ARPT PREMISES.

Airport Operational Statistics

Aircraft based on the field: 3
Single engine airplanes: 3
    
Aircraft operations: avg 26/month *
50% transient general aviation
50% local general aviation
* for 12-month period ending 31 December 2019

Additional Remarks

ARPT CLSD DEC-MAR & WHEN SNOW COVD.
CROPS ADJ TO RWY.
DEER ON & INVOF RWY.
FOR CD CTC GREAT LAKES APCH AT 269-459-3345, WHEN APCH CLSD CTC CLEVELAND ARTCC AT 440-774-0224/0490.

Instrument Procedures

There are no published instrument procedures at C43.

Some nearby airports with instrument procedures:

4D0 - Abrams Municipal Airport (10 nm E)
Y70 - Ionia County Airport (11 nm NW)
KFPK - Fitch H Beach Airport (14 nm SE)
KLAN - Capital Region International Airport (17 nm E)
9D9 - Hastings Airport (18 nm W)
 
Loc | Ops | Rwys | IFR | FBO | Links
Com | Nav | Svcs | Stats | Notes
Area around C43 (Hiram Cure Airport)
 
Road maps at: MapQuest Bing Google
 
Aerial photo
WARNING: Photo may not be current or correct
Aerial photo of C43 (Hiram Cure Airport)
Photo by Ren Wall, Kalamazoo
Taken in 2005

Do you have a better or more recent aerial photo of Hiram Cure Airport that you would like to share? If so, please send us your photo.

 
Sectional chart

 
Airport distance calculator
Flying to Hiram Cure Airport? Find the distance to fly.

From to C43

Sunrise and sunset
Times for 16-Jan-2021
 Local
(UTC-5)
 Zulu
(UTC)
Morning civil twilight07:3712:37
Sunrise08:0813:08
Sunset17:3122:31
Evening civil twilight18:0223:02

Current date and time
Zulu (UTC)  16-Jan-2021 12:07:43
Local (UTC-5)  16-Jan-2021 07:07:43
 
METAR
KY70 
11nm NW 
161157Z AUTO 21006KT 2SM BR OVC003 M03/M03 A2956 RMK AO2 70014 T10271033 11027 21062
KFPK 
14nm SE 
161155Z AUTO 25004KT 10SM OVC009 M02/M03 A2956 RMK AO2 70016 T10161028 11016 21056
KLAN 
17nm E 
161153Z 19005KT 8SM OVC007 M02/M03 A2957 RMK AO2 SLP023 70033 I6001 T10171028 11017 21039 53002
TAF
KLAN 
17nm E 
160734Z 1608/1706 19007KT 2SM BR OVC002 FM161500 22006KT P6SM OVC009 FM170000 24005KT 6SM BR OVC007
NOTAMs
Click for the latest NOTAMs
NOTAMs are issued by the DoD/FAA and will open in a separate window not controlled by AirNav.

 

 
 

Would you like to see your business listed on this page?

 If your business provides an interesting product or service to pilots, flight crews, aircraft, or users of the Hiram Cure Airport, you should consider listing it here.  To start the listing process, click on the button below
 
Add a business
 

Other Pages about Hiram Cure Airport

Page from the Michigan Airport Directory (PDF)
 
Update a link
 
Copyright © AirNav, LLC. All rights reserved. Privacy Policy  Contact